| time (UTC) | temp C | wind direction | speed KPH | gust KPH | rain 1hr cm | rain 24hr cm | rain mn cm | humidity % | barometer mb |
| 20260503230017 | 27 | 0.0 | 4.8 | 0.00 | 0.00 | 0.00 | 41 | 1010.2 | |
| 20260503223016 | 27 | 270 | 1.6 | 9.7 | 0.00 | 0.00 | 0.00 | 41 | 1010.6 |
| 20260503220016 | 26 | 270 | 3.2 | 11.3 | 0.00 | 0.00 | 0.00 | 41 | 1010.9 |
| 20260503213016 | 25 | 270 | 1.6 | 11.3 | 0.00 | 0.00 | 0.00 | 40 | 1011.1 |
| 20260503210016 | 25 | 0.0 | 6.4 | 0.00 | 0.00 | 0.00 | 43 | 1011.2 | |
| 20260503203016 | 23 | 90 | 1.6 | 9.7 | 0.00 | 0.00 | 0.00 | 48 | 1011.8 |
| 20260503200016 | 23 | 90 | 1.6 | 8.0 | 0.00 | 0.00 | 0.00 | 50 | 1012.1 |
| 20260503193017 | 23 | 90 | 1.6 | 8.0 | 0.00 | 0.00 | 0.00 | 50 | 1012.7 |
| 20260503190016 | 22 | 0.0 | 6.4 | 0.00 | 0.00 | 0.00 | 50 | 1013.1 | |
| 20260503183016 | 21 | 90 | 1.6 | 9.7 | 0.00 | 0.00 | 0.00 | 56 | 1013.2 |
| 20260503180016 | 20 | 90 | 1.6 | 8.0 | 0.00 | 0.00 | 0.00 | 61 | 1013.4 |
| 20260503173016 | 19 | 90 | 1.6 | 6.4 | 0.00 | 0.00 | 0.00 | 64 | 1013.6 |
| 20260503053015 | 16 | 0.0 | 0.0 | 0.00 | 0.00 | 0.00 | 69 | 1013.9 | |
| 20260503050015 | 16 | 0.0 | 0.0 | 0.00 | 0.00 | 0.00 | 68 | 1013.8 | |
| 20260503043015 | 17 | 0.0 | 0.0 | 0.00 | 0.00 | 0.00 | 67 | 1013.7 | |
| 20260503040017 | 18 | 0.0 | 0.0 | 0.00 | 0.00 | 0.00 | 64 | 1013.3 | |
| 20260503033018 | 19 | 0.0 | 1.6 | 0.00 | 0.00 | 0.00 | 59 | 1012.8 | |
| 20260503030017 | 20 | 0.0 | 8.0 | 0.00 | 0.00 | 0.00 | 56 | 1012.5 | |
| 20260503023017 | 22 | 0.0 | 4.8 | 0.00 | 0.00 | 0.00 | 53 | 1012.3 | |
| 20260503020017 | 24 | 0.0 | 4.8 | 0.00 | 0.00 | 0.00 | 48 | 1012.3 | |
| 20260503013017 | 25 | 0.0 | 3.2 | 0.00 | 0.00 | 0.00 | 46 | 1012.2 | |
| 20260503010017 | 25 | 0.0 | 6.4 | 0.00 | 0.00 | 0.00 | 45 | 1012.4 | |
| 20260503003017 | 24 | 90 | 1.6 | 9.7 | 0.00 | 0.00 | 0.00 | 46 | 1012.6 |
| 20260503000016 | 25 | 0.0 | 8.0 | 0.00 | 0.00 | 0.00 | 46 | 1012.9 | |
| 20260502233016 | 23 | 0.0 | 11.3 | 0.00 | 0.00 | 0.00 | 50 | 1013.2 |